Overview Statistics Trail Chart Weather Telemetry Raw packets
 

This is the latest recevied weather packets stored in our database for station/object KBTL-WX. If no packets are shown the sender has not sent any weather packets the latest 10 day(s).

<< 34 35 36 37 38 39 >>
Time Temp. Humidity Pressure Rain* Wind** Luminosity Snow
1777139113 14.44° C 77% 980.7 hPa 0 mm - - -
1777138229 13.89° C 77% 980.1 hPa 0 mm - - -
1777137313 13.33° C 77% 980.2 hPa 0 mm - - -
1777136431 12.78° C 77% 980.2 hPa 0 mm - - -
1777135513 12.78° C 80% 979.5 hPa 0 mm - - -
1777134624 12.78° C 83% 979.6 hPa 0 mm - - -
1777133713 12.22° C 83% 979.6 hPa 0 mm - - -
1777132835 12.22° C 83% 979.6 hPa 0 mm - - -
1777131913 12.22° C 85% 979.1 hPa 0 mm - - -
1777131025 11.11° C 92% 979.2 hPa 0 mm - - -
1777130114 11.11° C 92% 979.2 hPa 0 mm - - -
1777129234 11.11° C 92% 979.2 hPa 0 mm - - -
1777128313 11.11° C 92% 978.5 hPa 0 mm - - -
1777127429 11.11° C 87% 979.4 hPa 0 mm - - -
1777126513 11.11° C 87% 979.4 hPa 0 mm - - -
1777125636 11.11° C 87% 979.4 hPa 0 mm - - -
1777124713 11.11° C 92% 979 hPa 0 mm - - -
1777123829 11.11° C 92% 979 hPa 0 mm - - -
1777122913 10.56° C 92% 979 hPa 0 mm - - -
1777122030 10.56° C 92% 979 hPa 0 mm - - -
1777121112 10° C 96% 977.9 hPa 0 mm - - -
1777120229 10.56° C 94% 978.6 hPa 0 mm - - -
1777119312 10.56° C 94% 978.6 hPa 0 mm - - -
1777118436 10.56° C 94% 978.6 hPa 0 mm - - -
1777117513 10.56° C 90% 977.4 hPa 0 mm - - -

* Rain latest hour (hover to see other rain measurements)
** Current wind speed in m/s (hover to see current wind gust speed)